Regional Weather Roundup
Issued by NWS Grand Forks, ND

Home | Current Version | Previous Version | Text Only | Print | Product List | Glossary Off
Versions: 1 2 3 4 5 6 7 8 9 10 11 12 13 14 15 16 17 18 19 20 21 22 23 24 25 26 27 28 29 30 31 32 33 34 35 36 37 38 39 40 41 42 43 44 45 46 47 48 49 50

715
ASUS43 KFGF 290831
RWRFGF
PRAIRIE TO PINES  WEATHER ROUNDUP
NATIONAL WEATHER SERVICE EASTERN NORTH DAKOTA/GRAND FORKS ND
300 AM CDT WED MAR 29 2017

 **SATELLITE DATA USED TO AUGMENT SKY COVER AT AUTOMATED STATIONS**
 *****  WEATHER ACROSS EASTERN NORTH DAKOTA  *****

CITY           SKY/WX    TMP DP  RH WIND       PRES   REMARKS
GRAND FORKS    FAIR      32  31  96 CALM      30.18F
GRAND FRKS AFB FAIR      30  30 100 CALM      30.18F FOG
DEVILS LAKE    FAIR      34  34 100 CALM      30.16F FOG
FARGO          FAIR      37  32  82 CALM      30.17S
WAHPETON ARPT  FAIR      37  34  87 CALM      30.18R
$$

 ***** WEATHER ACROSS CENTRAL AND WESTERN NORTH DAKOTA  *****

CITY           SKY/WX    TMP DP  RH WIND       PRES   REMARKS
BISMARCK       CLOUDY    44  40  85 CALM      30.14F
MINOT          CLOUDY    42  39  89 CALM      30.08F
JAMESTOWN      FAIR      36  35  96 CALM      30.16F FOG
MINOT AFB      MOCLDY    38  37  98 S6        30.06F
GARRISON         N/A     37  34  89 S3        30.09F
WILLISTON      FOG       32  31  96 CALM      30.08F VSB 1/4
DICKINSON      FAIR      37  36  96 S8        30.07F
HETTINGER      FAIR      38  37  97 SE7       30.12S
$$

 *****  OTHER AIRPORT OBSERVATIONS IN OUR AREA  *****

CITY           SKY/WX    TMP DP  RH WIND       PRES   REMARKS
WALHALLA       NOT AVBL
GRAFTON AIRPOR FAIR      32  32 100 NW5       30.21S FOG
VALLEY CITY AR FAIR      37  37 100 NE3       30.18F
CANDO          NOT AVBL
CAVALIER APRT  FAIR      32  32 100 CALM      30.19S FOG
GWINNER        SUNNY     41  39  93 MISG      30.18R
SHEYENNE NWR     N/A     35  35 100 CALM      29.95S
ROLLA          FOG       34  34 100 S9        30.13F VSB 1/2
 ***** THE ABOVE OBSERVATIONS ARE NON NWS ARE NOT QUALITY
       CONTROLLED AND MAY MIS-REPORT RAIN FOR SNOW...
$$

  *****  WEATHER ACROSS NORTHERN MINNESOTA  *****

CITY           SKY/WX    TMP DP  RH WIND       PRES   REMARKS
FLAG ISLAND    FAIR      36  19  51 E6        30.24F
WARROAD        MOCLDY    32  28  86 E5        30.24F
ROSEAU         FAIR      36  28  75 E6        30.22F
HALLOCK        FAIR      37  30  75 E9        30.19S
THF RVR FALLS  FAIR      38  28  67 E9        30.21F
BAUDETTE       FAIR      31  23  72 E7        30.24F WCI  24
WASKISH        FAIR      34  27  75 E6        30.23S
CROOKSTON      FAIR      37  30  75 SE7       30.19F
STEPHEN NDAWN    N/A     36  30  80 SE6         N/A
GREENBUSH NDAW   N/A     36  30  80 E5          N/A
$$
  *****  WEATHER ACROSS CENTRAL AND WEST MINNESOTA  *****

CITY           SKY/WX    TMP DP  RH WIND       PRES   REMARKS
FOSSTON        FAIR      34  28  80 E3        30.20S
BEMIDJI        FAIR      32  25  74 CALM      30.21S
PARK RAPIDS    FAIR      35  25  66 CALM      30.18F
ELBOW LAKE     FAIR      40  37  87 CALM      30.18S
WADENA         FAIR      37  27  65 CALM      30.19R
DETROIT LAKES  FAIR      43  30  61 E3        30.19S
MOORHEAD       FAIR      36  32  87 CALM      30.18S
FERGUS FALLS   FAIR      45  30  57 E3        30.20S
MORRIS MN      FAIR      39  34  81 E7        30.16F
STAPLES        FAIR      34  28  80 CALM      30.20R
$$
  *****  WEATHER ELSEWHERE ACROSS MINNESOTA  *****

CITY           SKY/WX    TMP DP  RH WIND       PRES   REMARKS
DULUTH         FAIR      35  24  64 E16G25    30.26S
INTRNTL FALLS  FAIR      31  22  69 E5        30.26S
ELY            FAIR      28  25  86 NE5       30.28S WCI  23
CLOQUET        FAIR      36  27  69 E9        30.25S
WHEATON        FAIR      37  36  93 CALM      30.19F FOG
BRAINERD       FAIR      35  27  72 NE3       30.21R
HIBBING        FAIR      27  24  89 N3        30.25S
ALEXANDRIA     FAIR      38  31  76 E3        30.18R
SAINT CLOUD    FAIR      34  28  79 E3        30.19R
MINNEAPOLIS    MOCLDY    42  32  67 CALM      30.20R
$$

  *****  WEATHER ACROSS SOUTH DAKOTA  *****

CITY           SKY/WX    TMP DP  RH WIND       PRES   REMARKS
SIOUX FALLS    FAIR      42  37  82 NE6       30.14F
BROOKINGS      FAIR      43  35  73 CALM      30.14F
WATERTOWN      FAIR      43  36  76 E3        30.16S
HURON          FAIR      44  39  82 CALM      30.14F
SISSETON         N/A     39  36  89 NW5       30.17S
ABERDEEN       FAIR      42  34  73 E6        30.17R
MITCHELL       FAIR      44  37  76 CALM      30.15R
PIERRE         LGT RAIN  45  42  89 N7        30.14S
MOBRIDGE       CLOUDY    43  38  82 SE3       30.13R
RAPID CITY     CLOUDY    41  40  96 S6        30.12R
$$

  *****  SOME WEATHER IN NEARBY STATES *****

CITY           SKY/WX    TMP DP  RH WIND       PRES   REMARKS
GLASGOW MT     MOCLDY    39  33  79 SE7       30.02F
GREAT FALLS MT FAIR      39  25  57 SW14      30.05S
CHEYENNE WY    CLOUDY    34  33  96 N9        30.08S
SCOTTSBLUFF NE CLOUDY    39  36  89 CALM      30.12S
OMAHA NE       LGT RAIN  48  42  80 NE13      30.06F
DES MOINES IA  CLOUDY    47  42  83 E8        30.09F
DAVENPORT IA   CLOUDY    40  37  89 E14       30.16F
CHICAGO IL     FOG       36  34  92 NE9       30.21F VSB 3/4
EAU CLAIRE WI  FAIR      34  29  82 NE7       30.21S
LA CROSSE WI   FAIR      45  34  65 E7        30.21S
$$

  *****  SOME NATIONAL WEATHER *****

CITY           SKY/WX    TMP DP  RH WIND       PRES   REMARKS
LA GUARDIA NY  CLOUDY    48  42  80 N15       29.97R
RALEIGH NC     FAIR      59  50  72 CALM      29.97R
ATLANTA GA     FAIR      61  56  83 NW5       30.00S
NEW ORLEANS LA FAIR      70  67  90 SE10      29.89F
OKLAHOMA CITY  TSTM      52  51  97 N18       29.69F FOG
ALBUQUERQUE NM LGT RAIN  43  38  82 N5        29.85R
SALT LAKE CITY FAIR      39  32  76 N6        30.23R
LOS ANGELES CA FAIR      58  51  78 E6        30.00S
BOISE ID       FAIR      40  32  73 SE7       30.24F
SEATTLE WA     LGT RAIN  45  43  93 SW5       30.12F
$$

*** WEATHER ACROSS MANITOBA...SASKATCHEWAN AND ONTARIO ***
                ***ONTARIO***

CITY           SKY/WX    TMP DP  RH WIND       PRES   REMARKS
GERALDTON      PTCLDY    16  14  93 E3        30.38F
THUNDER BAY    CLEAR     25  23  93 NW2       30.38R
SIOUX LOOKOUT  MOCLDY    27  18  69 SE5       30.33S WCI  21
TORONTO        CLEAR     34  30  86 N7        30.19F
BIG TROUT LK     N/A      9   5  85 E2        30.44S
PICKLE LAKE    NOT AVBL
DRYDEN         PTCLDY    28  21  74 E7        30.30R WCI  21
KENORA         MOCLDY    34  19  55 E9        30.26F
$$
                *** MANITOBA***

CITY           SKY/WX    TMP DP  RH WIND       PRES   REMARKS
BRANDON        CLOUDY    32  30  93 E12       30.14F WCI  23
DAUPHIN        CLOUDY    32  30  93 SE10      30.15F WCI  24
ISLAND LAKE    PTCLDY    23  16  74 SE7       30.33F WCI  15
PILOT MOUND      N/A     34  34 100 SE8         N/A
THE PAS        CLOUDY    30  21  69 SE14      30.15F WCI  20
THOMPSON       CLEAR     16   9  73 VRB2      30.27F
WINNIPEG       MOCLDY    37  27  65 SE9       30.19F
LYNN LAKE      PTCLDY    19  14  79 SE7       30.15F WCI  10
CHURCHILL      CLEAR      1   0  92 S12       30.41F WCI -15
GILLAM         CLEAR     10   5  79 SE6       30.36F WCI   1
$$
                ***SASKATCHEWAN***

CITY           SKY/WX    TMP DP  RH WIND       PRES   REMARKS
ESTEVAN        FOG       30  30 100 SE6       30.07F VSB 1/8 WCI  24
KINDERSLEY     PTCLDY    32  27  80 S9        29.85S WCI  24
LLOYDMINSTER   FOG       36  36 100 E8        29.85S VSB 3/4
PRINCE ALBERT  CLOUDY    36  34  93 SE8       29.98F
REGINA         FOG       36  36 100 SE14      30.01F VSB 1/4
YORKTON        CLOUDY    32  32 100 SE9       30.07F FOG     WCI  24
N. BATTLEFORD  MOCLDY    36 N/A N/A E12       29.87F HAZE
LA RONGE       CLOUDY    34  27  75 E8        30.02F
SASKATOON      CLOUDY    37  34  87 SE8       29.92S
SWIFT CURRENT  CLOUDY    39  28  65 SW12      29.93S
$$
NOTE: THESE ARE AUTOMATED STATIONS WITH LIMITED QUALITY CONTROL
      "FAIR" INDICATES FEW OR NO CLOUDS BELOW 12,000 FEET WITH NO
      SIGNIFICANT WEATHER AND/OR OBSTRUCTIONS TO VISIBILITY.
      SKY/WX - SKY CONDITION AND SIGNIFICANT WEATHER.
      TMP - AIR TEMPERATURE.    DP   - DEWPOINT TEMPERATURE.
      RH  - RELATIVE HUMIDITY.  PRES - PRESSURE.
      HX  - HEAT INDEX.         WCI  - WIND CHILL INDEX.
$




USA.gov is the U.S. government's official web portal to all federal, state and local government web resources and services.